#timestamp,LO_Frequency,Hit,StdDev 
1689501615.1,286047000.7,N
1689501616.0,286047000.7,N
1689501635.8,286047000.8,N
1689501655.7,286047001.2,N
1689501675.5,286046998.5,N
1689501695.3,286047001.2,N
1689501715.2,286046998.6,N
1689501735.0,286046998.5,N
1689501735.9,286046998.5,N
1689501755.8,286047001.1,N
1689501775.6,286047000.8,N
1689501795.4,286046999.7,N
1689501815.3,286047000.7,N
1689501835.1,286047001.0,N
1689501855.8,286047000.4,N
1689501875.7,286047000.2,N
1689501895.5,286046999.8,N
1689501915.4,286047000.5,N
1689501935.2,286047000.2,N
1689501955.0,286047002.7,Y
1689501955.9,286047002.7,P
1689501975.8,286047000.6,N
1689501995.6,286047000.3,N
1689502015.5,286047000.9,N
1689502035.3,286047000.5,N
1689502055.1,286046999.8,N
1689502075.9,286047000.3,N
1689502095.7,286046999.9,N
1689502115.5,286047000.4,N
1689502135.4,286047000.6,N
1689502155.2,286047000.0,N
1689502175.0,286047000.2,N
1689502175.9,286047000.2,N
1689502195.8,286046999.9,N
1689502215.6,286047000.3,N
1689502235.5,286047000.1,N
1689502255.3,286046999.8,N
1689502275.1,286046999.8,N
1689502295.9,286047002.8,Y
1689502315.7,286047000.6,P
1689502335.5,286047000.3,N
1689502355.4,286047000.1,N
1689502375.2,286047001.6,Y
1689502395.1,286047001.6,P
1689502396.0,286047001.6,N
1689502415.8,286047002.0,P
1689502435.6,286047001.7,N
1689502455.5,286047004.4,Y
1689502475.3,286047000.4,P
1689502495.2,286047002.2,P
1689502515.0,286047002.8,P
1689502515.9,286047002.8,Y
1689502535.7,286047001.2,P
1689502555.6,286047000.9,P
1689502575.4,286046998.2,P
1689502595.3,286046996.7,N
1689502615.1,286046996.5,N
1689502616.0,286046996.5,N
1689502635.8,286046999.4,N
1689502655.7,286046998.8,N
1689502675.5,286046998.1,N
1689502695.4,286046998.2,N
1689502715.2,286046999.6,N
1689502735.0,286046999.1,N
1689502735.9,286046999.1,N
1689502755.8,286046999.6,N
1689502775.6,286046999.6,N
1689502795.4,286046996.6,N
1689502815.3,286046999.3,N
1689502835.1,286046999.0,N
1689502855.9,286046999.1,N
1689502875.7,286046999.0,N
1689502895.5,286046999.0,N
1689502915.4,286046999.3,N
1689502935.2,286046999.6,N
1689502955.1,286046999.4,N
1689502956.0,286046999.4,N
1689502975.8,286046998.9,N
1689502995.6,286046998.3,N
1689503015.5,286047001.1,N
1689503035.3,286046998.2,N
1689503055.2,286046998.2,N
1689503075.9,286046999.2,N
1689503095.7,286046999.0,N
1689503115.6,286046999.5,N
1689503135.4,286046999.4,N
1689503155.3,286046997.4,N
1689503175.1,286046997.2,Y
1689503176.0,286046997.2,P
1689503195.8,286046997.2,P
1689503215.1,286046996.5,P
1689503235.9,286046998.9,N
1689503255.7,286046997.1,N
1689503275.6,286046996.8,Y
1689503295.4,286047001.2,P
1689503315.2,286047000.7,N
1689503335.1,286047001.2,N
1689503336.0,286047001.2,N
1689503355.8,286046999.9,N
1689503375.6,286047000.5,N
1689503395.5,286046998.3,N
1689503415.3,286046998.1,N
1689503435.2,286046998.6,N
1689503455.9,286046998.8,N
1689503475.7,286046998.4,N
1689503495.6,286046998.8,N
1689503515.4,286046998.9,N
1689503535.2,286046997.1,N
1689503555.1,286046999.2,N
1689503556.0,286046999.2,N
1689503575.8,286046999.3,N
1689503595.7,286046999.3,N
1689503615.5,286046996.7,N
1689503635.3,286046999.1,N
1689503655.2,286046999.6,N
1689503675.9,286046997.2,N
1689503695.7,286046999.1,N
1689503715.6,286046999.5,N
1689503735.4,286046996.7,N
1689503755.2,286046996.9,N
1689503775.1,286046997.0,N
1689503776.0,286046997.0,N
1689503795.8,286046996.6,N
1689503815.7,286046996.8,N
1689503835.5,286046997.1,N
1689503855.3,286046996.7,N
1689503875.2,286046997.3,N
1689503895.0,286046996.8,N
1689503895.9,286046996.8,N
1689503915.7,286046997.8,N
1689503935.6,286046997.5,N
1689503955.4,286046997.7,N
1689503975.3,286046997.6,N
1689503995.1,286046997.1,N
1689503996.0,286046997.1,N
1689504015.8,286046997.3,N
1689504035.7,286046997.9,N
1689504055.5,286046997.4,N
1689504075.3,286046997.2,N
1689504095.2,286046997.5,N
1689504115.0,286046997.7,N
1689504115.9,286046997.7,N
1689504135.8,286046997.3,Y
1689504155.6,286046998.1,P
1689504175.4,286046998.6,P
1689504195.3,286046998.4,P
1689504215.1,286046998.3,Y
1689504235.9,286047000.1,P
1689504255.7,286047002.8,N
1689504275.5,286047002.5,N
1689504295.4,286047002.6,N
1689504315.2,286047000.1,N
1689504335.0,286047000.1,N
1689504335.9,286047000.1,N
1689504355.8,286047000.3,N
1689504375.6,286046999.8,N
1689504395.5,286047000.6,N
1689504415.3,286047000.1,N
1689504435.1,286047000.1,N
1689504455.9,286047000.1,N
1689504475.7,286047002.8,N
1689504495.6,286047002.8,N
1689504515.4,286047002.3,N
1689504535.2,286047002.7,N
1689504555.1,286047002.6,N
1689504556.0,286047011.9,Y
1689504575.8,286047000.4,P
1689504595.7,286047000.9,N
1689504615.5,286047001.2,P
1689504635.3,286047000.5,N
1689504655.2,286047000.8,N
1689504675.0,286047000.7,N
1689504675.9,286047000.7,N
1689504695.8,286047001.1,Y
1689504715.6,286047001.2,P
1689504735.4,286047000.8,P
1689504755.3,286046998.3,P
1689504775.1,286046998.2,N
1689504795.8,286046998.5,N
1689504815.7,286046998.2,N
1689504835.5,286046998.8,N
1689504855.4,286046998.5,N
1689504875.2,286047001.1,N
1689504895.0,286047000.8,N
1689504895.9,286047000.8,N
1689504915.8,286046998.6,N
1689504935.6,286046998.5,N
1689504955.4,286046998.6,N
1689504975.3,286046996.5,N
1689504995.1,286046996.5,N
1689505015.9,286046996.6,N
1689505035.7,286046996.7,N
1689505055.5,286046999.3,N
1689505075.4,286046996.5,N
1689505095.2,286046999.6,N
1689505115.0,286046998.9,N
1689505115.9,286046998.9,N
1689505135.8,286046999.0,N
1689505155.6,286046999.3,N
1689505175.5,286046999.0,N
1689505195.3,286046999.5,N
